owner,sensor,date,latitude,longitude,vertical_datum,mass_concentration_of_oxygen_in_sea_water,qcFlag 
SCCF RECON,ioos:station:SCCF:53:1,2010-05-01T00:00:00Z,26.6493,-81.8810,2.296,7.02,1111122 
SCCF RECON,ioos:station:SCCF:53:1,2010-05-01T01:00:00Z,26.6493,-81.8810,2.24,6.86,1111122 
SCCF RECON,ioos:station:SCCF:53:1,2010-05-01T02:00:00Z,26.6493,-81.8810,2.19,6.8,1111122 
SCCF RECON,ioos:station:SCCF:53:1,2010-05-01T03:00:00Z,26.6493,-81.8810,2.13,6.79,1111122 
SCCF RECON,ioos:station:SCCF:53:1,2010-05-01T04:00:00Z,26.6493,-81.8810,2.072,6.84,1111122 
SCCF RECON,ioos:station:SCCF:53:1,2010-05-01T05:00:00Z,26.6493,-81.8810,2.021,6.82,1111122 
SCCF RECON,ioos:station:SCCF:53:1,2010-05-01T06:00:00Z,26.6493,-81.8810,2.0,6.69,1111122 
SCCF RECON,ioos:station:SCCF:53:1,2010-05-01T07:00:00Z,26.6493,-81.8810,2.02,6.63,1111122 
SCCF RECON,ioos:station:SCCF:53:1,2010-05-01T08:00:00Z,26.6493,-81.8810,2.06,6.71,1111122 
SCCF RECON,ioos:station:SCCF:53:1,2010-05-01T09:00:00Z,26.6493,-81.8810,2.1,6.77,1111122 
SCCF RECON,ioos:station:SCCF:53:1,2010-05-01T10:00:00Z,26.6493,-81.8810,2.146,6.83,1111122 
SCCF RECON,ioos:station:SCCF:53:1,2010-05-01T11:00:00Z,26.6493,-81.8810,2.18,6.83,1111122 
SCCF RECON,ioos:station:SCCF:53:1,2010-05-01T12:00:00Z,26.6493,-81.8810,2.198,6.81,1111122 
SCCF RECON,ioos:station:SCCF:53:1,2010-05-01T13:00:00Z,26.6493,-81.8810,2.19,6.86,1111122 
SCCF RECON,ioos:station:SCCF:53:1,2010-05-01T14:00:00Z,26.6493,-81.8810,2.177,6.9,1111122 
SCCF RECON,ioos:station:SCCF:53:1,2010-05-01T15:00:00Z,26.6493,-81.8810,2.169,6.86,1111122 
SCCF RECON,ioos:station:SCCF:53:1,2010-05-01T16:00:00Z,26.6493,-81.8810,2.195,6.87,1111122 
SCCF RECON,ioos:station:SCCF:53:1,2010-05-01T17:00:00Z,26.6493,-81.8810,2.25,6.99,1111122 
SCCF RECON,ioos:station:SCCF:53:1,2010-05-01T18:00:00Z,26.6493,-81.8810,2.31,6.97,1111122 
SCCF RECON,ioos:station:SCCF:53:1,2010-05-01T19:00:00Z,26.6493,-81.8810,2.362,7.03,1111122 
SCCF RECON,ioos:station:SCCF:53:1,2010-05-01T20:00:00Z,26.6493,-81.8810,2.409,7.08,1111122 
SCCF RECON,ioos:station:SCCF:53:1,2010-05-01T21:00:00Z,26.6493,-81.8810,2.444,7.04,1111122 
SCCF RECON,ioos:station:SCCF:53:1,2010-05-01T22:00:00Z,26.6493,-81.8810,2.466,7.01,1111122 
SCCF RECON,ioos:station:SCCF:53:1,2010-05-01T23:00:00Z,26.6493,-81.8810,2.43,7.04,1111122 
SCCF RECON,ioos:station:SCCF:53:1,2010-05-02T00:00:00Z,26.6493,-81.8810,2.364,7.33,1111122 
SCCF RECON,ioos:station:SCCF:53:1,2010-05-02T01:00:00Z,26.6493,-81.8810,2.307,6.98,1111122 
SCCF RECON,ioos:station:SCCF:53:1,2010-05-02T02:00:00Z,26.6493,-81.8810,2.25,6.93,1111122 
SCCF RECON,ioos:station:SCCF:53:1,2010-05-02T03:00:00Z,26.6493,-81.8810,2.19,6.74,1111122 
SCCF RECON,ioos:station:SCCF:53:1,2010-05-02T04:00:00Z,26.6493,-81.8810,2.13,6.69,1111122 
SCCF RECON,ioos:station:SCCF:53:1,2010-05-02T05:00:00Z,26.6493,-81.8810,2.07,6.71,1111122 
SCCF RECON,ioos:station:SCCF:53:1,2010-05-02T06:00:00Z,26.6493,-81.8810,2.02,6.69,1111122 
SCCF RECON,ioos:station:SCCF:53:1,2010-05-02T07:00:00Z,26.6493,-81.8810,2.0,6.48,1111122 
SCCF RECON,ioos:station:SCCF:53:1,2010-05-02T08:00:00Z,26.6493,-81.8810,2.01,6.5,1111122 
SCCF RECON,ioos:station:SCCF:53:1,2010-05-02T09:00:00Z,26.6493,-81.8810,2.05,6.54,1111122 
SCCF RECON,ioos:station:SCCF:53:1,2010-05-02T10:00:00Z,26.6493,-81.8810,2.09,6.66,1111122 
SCCF RECON,ioos:station:SCCF:53:1,2010-05-02T11:00:00Z,26.6493,-81.8810,2.13,6.62,1111122 
SCCF RECON,ioos:station:SCCF:53:1,2010-05-02T12:00:00Z,26.6493,-81.8810,2.171,6.61,1111122 
SCCF RECON,ioos:station:SCCF:53:1,2010-05-02T13:00:00Z,26.6493,-81.8810,2.2,6.6,1111122 
SCCF RECON,ioos:station:SCCF:53:1,2010-05-02T14:00:00Z,26.6493,-81.8810,2.209,6.7,1111122 
SCCF RECON,ioos:station:SCCF:53:1,2010-05-02T15:00:00Z,26.6493,-81.8810,2.199,6.69,1111122 
SCCF RECON,ioos:station:SCCF:53:1,2010-05-02T16:00:00Z,26.6493,-81.8810,2.191,6.85,1111122 
SCCF RECON,ioos:station:SCCF:53:1,2010-05-02T17:00:00Z,26.6493,-81.8810,2.217,6.78,1111122 
SCCF RECON,ioos:station:SCCF:53:1,2010-05-02T18:00:00Z,26.6493,-81.8810,2.26,6.94,1111122 
SCCF RECON,ioos:station:SCCF:53:1,2010-05-02T19:00:00Z,26.6493,-81.8810,2.312,6.92,1111122 
SCCF RECON,ioos:station:SCCF:53:1,2010-05-02T20:00:00Z,26.6493,-81.8810,2.373,7.0,1111122 
SCCF RECON,ioos:station:SCCF:53:1,2010-05-02T21:00:00Z,26.6493,-81.8810,2.423,7.03,1111122 
SCCF RECON,ioos:station:SCCF:53:1,2010-05-02T22:00:00Z,26.6493,-81.8810,2.463,7.04,1111122 
SCCF RECON,ioos:station:SCCF:53:1,2010-05-02T23:00:00Z,26.6493,-81.8810,2.477,7.05,1111122 
SCCF RECON,ioos:station:SCCF:53:1,2010-05-03T00:00:00Z,26.6493,-81.8810,2.436,7.07,1111122 
SCCF RECON,ioos:station:SCCF:53:1,2010-05-03T01:00:00Z,26.6493,-81.8810,2.374,7.06,1111122 
SCCF RECON,ioos:station:SCCF:53:1,2010-05-03T02:00:00Z,26.6493,-81.8810,2.32,6.86,1111122 
SCCF RECON,ioos:station:SCCF:53:1,2010-05-03T03:00:00Z,26.6493,-81.8810,2.258,6.72,1111122 
SCCF RECON,ioos:station:SCCF:53:1,2010-05-03T04:00:00Z,26.6493,-81.8810,2.195,6.75,1111122 
SCCF RECON,ioos:station:SCCF:53:1,2010-05-03T05:00:00Z,26.6493,-81.8810,2.14,6.78,1111122 
SCCF RECON,ioos:station:SCCF:53:1,2010-05-03T06:00:00Z,26.6493,-81.8810,2.08,6.72,1111122 
SCCF RECON,ioos:station:SCCF:53:1,2010-05-03T07:00:00Z,26.6493,-81.8810,2.03,6.67,1111122 
SCCF RECON,ioos:station:SCCF:53:1,2010-05-03T08:00:00Z,26.6493,-81.8810,2.01,6.62,1111122 
SCCF RECON,ioos:station:SCCF:53:1,2010-05-03T09:00:00Z,26.6493,-81.8810,2.01,6.59,1111122 
SCCF RECON,ioos:station:SCCF:53:1,2010-05-03T10:00:00Z,26.6493,-81.8810,2.05,6.63,1111122 
SCCF RECON,ioos:station:SCCF:53:1,2010-05-03T11:00:00Z,26.6493,-81.8810,2.097,6.63,1111122 
SCCF RECON,ioos:station:SCCF:53:1,2010-05-03T12:00:00Z,26.6493,-81.8810,2.14,6.61,1111122 
SCCF RECON,ioos:station:SCCF:53:1,2010-05-03T13:00:00Z,26.6493,-81.8810,2.161,6.63,1111122 
SCCF RECON,ioos:station:SCCF:53:1,2010-05-03T14:00:00Z,26.6493,-81.8810,2.176,6.67,1111122 
SCCF RECON,ioos:station:SCCF:53:1,2010-05-03T15:00:00Z,26.6493,-81.8810,2.182,6.73,1111122 
SCCF RECON,ioos:station:SCCF:53:1,2010-05-03T16:00:00Z,26.6493,-81.8810,2.185,6.85,1111122 
SCCF RECON,ioos:station:SCCF:53:1,2010-05-03T17:00:00Z,26.6493,-81.8810,2.205,6.73,1111122 
SCCF RECON,ioos:station:SCCF:53:1,2010-05-03T18:00:00Z,26.6493,-81.8810,2.24,6.72,1111122 
SCCF RECON,ioos:station:SCCF:53:1,2010-05-03T19:00:00Z,26.6493,-81.8810,2.283,6.86,1111122 
SCCF RECON,ioos:station:SCCF:53:1,2010-05-03T20:00:00Z,26.6493,-81.8810,2.335,6.91,1111122 
SCCF RECON,ioos:station:SCCF:53:1,2010-05-03T21:00:00Z,26.6493,-81.8810,2.383,6.83,1111122 
SCCF RECON,ioos:station:SCCF:53:1,2010-05-03T22:00:00Z,26.6493,-81.8810,2.413,6.79,1111122 
SCCF RECON,ioos:station:SCCF:53:1,2010-05-03T23:00:00Z,26.6493,-81.8810,2.412,6.91,1111122 
SCCF RECON,ioos:station:SCCF:53:1,2010-05-04T00:00:00Z,26.6493,-81.8810,2.379,6.8,1111122 
SCCF RECON,ioos:station:SCCF:53:1,2010-05-04T01:00:00Z,26.6493,-81.8810,2.331,7.06,1111122 
SCCF RECON,ioos:station:SCCF:53:1,2010-05-04T02:00:00Z,26.6493,-81.8810,2.28,6.58,1111122 
SCCF RECON,ioos:station:SCCF:53:1,2010-05-04T03:00:00Z,26.6493,-81.8810,2.235,6.6,1111122 
SCCF RECON,ioos:station:SCCF:53:1,2010-05-04T04:00:00Z,26.6493,-81.8810,2.18,6.49,1111122 
SCCF RECON,ioos:station:SCCF:53:1,2010-05-04T05:00:00Z,26.6493,-81.8810,2.13,6.37,1111122 
SCCF RECON,ioos:station:SCCF:53:1,2010-05-04T06:00:00Z,26.6493,-81.8810,2.08,6.16,1111122 
SCCF RECON,ioos:station:SCCF:53:1,2010-05-04T07:00:00Z,26.6493,-81.8810,2.03,6.18,1111122 
SCCF RECON,ioos:station:SCCF:53:1,2010-05-04T08:00:00Z,26.6493,-81.8810,1.99,6.13,1111122 
SCCF RECON,ioos:station:SCCF:53:1,2010-05-04T09:00:00Z,26.6493,-81.8810,1.98,6.08,1111122 
SCCF RECON,ioos:station:SCCF:53:1,2010-05-04T10:00:00Z,26.6493,-81.8810,2.0,5.98,1111122 
SCCF RECON,ioos:station:SCCF:53:1,2010-05-04T11:00:00Z,26.6493,-81.8810,2.05,6.02,1111122 
SCCF RECON,ioos:station:SCCF:53:1,2010-05-04T12:00:00Z,26.6493,-81.8810,2.09,5.95,1111122 
SCCF RECON,ioos:station:SCCF:53:1,2010-05-04T13:00:00Z,26.6493,-81.8810,2.12,5.97,1111122 
SCCF RECON,ioos:station:SCCF:53:1,2010-05-04T14:00:00Z,26.6493,-81.8810,2.148,6.01,1111122 
SCCF RECON,ioos:station:SCCF:53:1,2010-05-04T15:00:00Z,26.6493,-81.8810,2.157,6.07,1111122 
SCCF RECON,ioos:station:SCCF:53:1,2010-05-04T16:00:00Z,26.6493,-81.8810,2.147,6.05,1111122 
SCCF RECON,ioos:station:SCCF:53:1,2010-05-04T17:00:00Z,26.6493,-81.8810,2.138,6.25,1111122 
SCCF RECON,ioos:station:SCCF:53:1,2010-05-04T18:00:00Z,26.6493,-81.8810,2.127,6.18,1111122 
SCCF RECON,ioos:station:SCCF:53:1,2010-05-04T19:00:00Z,26.6493,-81.8810,2.155,6.14,1111122 
SCCF RECON,ioos:station:SCCF:53:1,2010-05-04T20:00:00Z,26.6493,-81.8810,2.189,7.01,1111122 
SCCF RECON,ioos:station:SCCF:53:1,2010-05-04T21:00:00Z,26.6493,-81.8810,2.226,6.8,1111122 
SCCF RECON,ioos:station:SCCF:53:1,2010-05-04T22:00:00Z,26.6493,-81.8810,2.267,6.81,1111122 
SCCF RECON,ioos:station:SCCF:53:1,2010-05-04T23:00:00Z,26.6493,-81.8810,2.279,7.0,1111122 
SCCF RECON,ioos:station:SCCF:53:1,2010-05-05T00:00:00Z,26.6493,-81.8810,2.269,6.94,1111122 
SCCF RECON,ioos:station:SCCF:53:1,2010-05-05T01:00:00Z,26.6493,-81.8810,2.24,6.15,1111122 
SCCF RECON,ioos:station:SCCF:53:1,2010-05-05T02:00:00Z,26.6493,-81.8810,2.203,6.49,1111122 
SCCF RECON,ioos:station:SCCF:53:1,2010-05-05T03:00:00Z,26.6493,-81.8810,2.16,6.0,1111122 
SCCF RECON,ioos:station:SCCF:53:1,2010-05-05T04:00:00Z,26.6493,-81.8810,2.117,5.92,1111122 
SCCF RECON,ioos:station:SCCF:53:1,2010-05-05T05:00:00Z,26.6493,-81.8810,2.069,5.83,1111122 
SCCF RECON,ioos:station:SCCF:53:1,2010-05-05T06:00:00Z,26.6493,-81.8810,2.017,5.72,1111122 
SCCF RECON,ioos:station:SCCF:53:1,2010-05-05T07:00:00Z,26.6493,-81.8810,1.97,5.72,1111122 
SCCF RECON,ioos:station:SCCF:53:1,2010-05-05T08:00:00Z,26.6493,-81.8810,1.934,5.67,1111122 
SCCF RECON,ioos:station:SCCF:53:1,2010-05-05T09:00:00Z,26.6493,-81.8810,1.92,5.73,1111122 
SCCF RECON,ioos:station:SCCF:53:1,2010-05-05T10:00:00Z,26.6493,-81.8810,1.95,5.7,1111122 
SCCF RECON,ioos:station:SCCF:53:1,2010-05-05T11:00:00Z,26.6493,-81.8810,1.99,5.7,1111122 
SCCF RECON,ioos:station:SCCF:53:1,2010-05-05T12:00:00Z,26.6493,-81.8810,2.04,5.7,1111122 
SCCF RECON,ioos:station:SCCF:53:1,2010-05-05T13:00:00Z,26.6493,-81.8810,2.099,5.67,1111122 
SCCF RECON,ioos:station:SCCF:53:1,2010-05-05T14:00:00Z,26.6493,-81.8810,2.144,5.7,1111122 
SCCF RECON,ioos:station:SCCF:53:1,2010-05-05T15:00:00Z,26.6493,-81.8810,2.183,5.81,1111122 
SCCF RECON,ioos:station:SCCF:53:1,2010-05-05T16:00:00Z,26.6493,-81.8810,2.199,5.95,1111122 
SCCF RECON,ioos:station:SCCF:53:1,2010-05-05T17:00:00Z,26.6493,-81.8810,2.18,5.77,1111122 
SCCF RECON,ioos:station:SCCF:53:1,2010-05-05T18:00:00Z,26.6493,-81.8810,2.145,5.87,1111122 
SCCF RECON,ioos:station:SCCF:53:1,2010-05-05T19:00:00Z,26.6493,-81.8810,2.114,5.89,1111122 
SCCF RECON,ioos:station:SCCF:53:1,2010-05-05T20:00:00Z,26.6493,-81.8810,2.095,5.76,1111122 
SCCF RECON,ioos:station:SCCF:53:1,2010-05-05T21:00:00Z,26.6493,-81.8810,2.096,5.61,1111122 
SCCF RECON,ioos:station:SCCF:53:1,2010-05-05T22:00:00Z,26.6493,-81.8810,2.13,5.7,1111122 
SCCF RECON,ioos:station:SCCF:53:1,2010-05-05T23:00:00Z,26.6493,-81.8810,2.165,5.76,1111122 
SCCF RECON,ioos:station:SCCF:53:1,2010-05-06T00:00:00Z,26.6493,-81.8810,2.19,5.97,1111122 
SCCF RECON,ioos:station:SCCF:53:1,2010-05-06T01:00:00Z,26.6493,-81.8810,2.18,6.13,1111122 
SCCF RECON,ioos:station:SCCF:53:1,2010-05-06T02:00:00Z,26.6493,-81.8810,2.15,5.91,1111122 
SCCF RECON,ioos:station:SCCF:53:1,2010-05-06T03:00:00Z,26.6493,-81.8810,2.11,5.75,1111122 
SCCF RECON,ioos:station:SCCF:53:1,2010-05-06T04:00:00Z,26.6493,-81.8810,2.07,5.76,1111122 
SCCF RECON,ioos:station:SCCF:53:1,2010-05-06T05:00:00Z,26.6493,-81.8810,2.02,5.69,1111122 
SCCF RECON,ioos:station:SCCF:53:1,2010-05-06T06:00:00Z,26.6493,-81.8810,1.98,5.57,1111122 
SCCF RECON,ioos:station:SCCF:53:1,2010-05-06T07:00:00Z,26.6493,-81.8810,1.93,5.47,1111122 
SCCF RECON,ioos:station:SCCF:53:1,2010-05-06T08:00:00Z,26.6493,-81.8810,1.9,5.43,1111122 
SCCF RECON,ioos:station:SCCF:53:1,2010-05-06T09:00:00Z,26.6493,-81.8810,1.88,5.34,1111122 
SCCF RECON,ioos:station:SCCF:53:1,2010-05-06T10:00:00Z,26.6493,-81.8810,1.88,5.21,1111122 
SCCF RECON,ioos:station:SCCF:53:1,2010-05-06T11:00:00Z,26.6493,-81.8810,1.916,5.14,1111122 
SCCF RECON,ioos:station:SCCF:53:1,2010-05-06T12:00:00Z,26.6493,-81.8810,1.97,5.2,1111122 
SCCF RECON,ioos:station:SCCF:53:1,2010-05-06T13:00:00Z,26.6493,-81.8810,2.018,5.31,1111122 
SCCF RECON,ioos:station:SCCF:53:1,2010-05-06T14:00:00Z,26.6493,-81.8810,2.069,5.28,1111122 
SCCF RECON,ioos:station:SCCF:53:1,2010-05-06T15:00:00Z,26.6493,-81.8810,2.118,5.3,1111122 
SCCF RECON,ioos:station:SCCF:53:1,2010-05-06T16:00:00Z,26.6493,-81.8810,2.14,5.26,1111122 
SCCF RECON,ioos:station:SCCF:53:1,2010-05-06T17:00:00Z,26.6493,-81.8810,2.149,5.27,1111122 
SCCF RECON,ioos:station:SCCF:53:1,2010-05-06T18:00:00Z,26.6493,-81.8810,2.129,5.42,1111122 
SCCF RECON,ioos:station:SCCF:53:1,2010-05-06T19:00:00Z,26.6493,-81.8810,2.102,5.37,1111122 
SCCF RECON,ioos:station:SCCF:53:1,2010-05-06T20:00:00Z,26.6493,-81.8810,2.068,5.0,1111122 
SCCF RECON,ioos:station:SCCF:53:1,2010-05-06T21:00:00Z,26.6493,-81.8810,2.05,5.23,1111122 
SCCF RECON,ioos:station:SCCF:53:1,2010-05-06T22:00:00Z,26.6493,-81.8810,2.053,5.28,1111122 
SCCF RECON,ioos:station:SCCF:53:1,2010-05-06T23:00:00Z,26.6493,-81.8810,2.09,5.37,1111122 
SCCF RECON,ioos:station:SCCF:53:1,2010-05-07T00:00:00Z,26.6493,-81.8810,2.129,5.24,1111122 
SCCF RECON,ioos:station:SCCF:53:1,2010-05-07T01:00:00Z,26.6493,-81.8810,2.171,5.9,1111122 
SCCF RECON,ioos:station:SCCF:53:1,2010-05-07T02:00:00Z,26.6493,-81.8810,2.192,5.7,1111122 
SCCF RECON,ioos:station:SCCF:53:1,2010-05-07T03:00:00Z,26.6493,-81.8810,2.19,5.6,1111122 
SCCF RECON,ioos:station:SCCF:53:1,2010-05-07T04:00:00Z,26.6493,-81.8810,2.17,6.02,1111122 
SCCF RECON,ioos:station:SCCF:53:1,2010-05-07T05:00:00Z,26.6493,-81.8810,2.12,5.5,1111122 
SCCF RECON,ioos:station:SCCF:53:1,2010-05-07T06:00:00Z,26.6493,-81.8810,2.08,5.26,1111122 
SCCF RECON,ioos:station:SCCF:53:1,2010-05-07T07:00:00Z,26.6493,-81.8810,2.03,5.33,1111122 
SCCF RECON,ioos:station:SCCF:53:1,2010-05-07T08:00:00Z,26.6493,-81.8810,1.99,5.31,1111122 
SCCF RECON,ioos:station:SCCF:53:1,2010-05-07T09:00:00Z,26.6493,-81.8810,1.953,5.19,1111122 
SCCF RECON,ioos:station:SCCF:53:1,2010-05-07T10:00:00Z,26.6493,-81.8810,1.93,5.1,1111122 
SCCF RECON,ioos:station:SCCF:53:1,2010-05-07T11:00:00Z,26.6493,-81.8810,1.93,5.08,1111122 
SCCF RECON,ioos:station:SCCF:53:1,2010-05-07T12:00:00Z,26.6493,-81.8810,1.98,4.96,1111122 
SCCF RECON,ioos:station:SCCF:53:1,2010-05-07T13:00:00Z,26.6493,-81.8810,2.03,5.07,1111122 
SCCF RECON,ioos:station:SCCF:53:1,2010-05-07T14:00:00Z,26.6493,-81.8810,2.08,5.03,1111122 
SCCF RECON,ioos:station:SCCF:53:1,2010-05-07T15:00:00Z,26.6493,-81.8810,2.137,5.05,1111122 
SCCF RECON,ioos:station:SCCF:53:1,2010-05-07T16:00:00Z,26.6493,-81.8810,2.175,5.05,1111122 
SCCF RECON,ioos:station:SCCF:53:1,2010-05-07T17:00:00Z,26.6493,-81.8810,2.186,5.01,1111122 
SCCF RECON,ioos:station:SCCF:53:1,2010-05-07T18:00:00Z,26.6493,-81.8810,2.17,5.03,1111122 
SCCF RECON,ioos:station:SCCF:53:1,2010-05-07T19:00:00Z,26.6493,-81.8810,2.123,5.13,1111122 
SCCF RECON,ioos:station:SCCF:53:1,2010-05-07T20:00:00Z,26.6493,-81.8810,2.077,5.16,1111122 
SCCF RECON,ioos:station:SCCF:53:1,2010-05-07T21:00:00Z,26.6493,-81.8810,2.05,5.07,1111122 
SCCF RECON,ioos:station:SCCF:53:1,2010-05-07T22:00:00Z,26.6493,-81.8810,2.03,5.11,1111122 
SCCF RECON,ioos:station:SCCF:53:1,2010-05-07T23:00:00Z,26.6493,-81.8810,2.01,5.22,1111122 
SCCF RECON,ioos:station:SCCF:53:1,2010-05-08T00:00:00Z,26.6493,-81.8810,2.03,5.75,1111122 
SCCF RECON,ioos:station:SCCF:53:1,2010-05-08T01:00:00Z,26.6493,-81.8810,2.09,5.67,1111122 
SCCF RECON,ioos:station:SCCF:53:1,2010-05-08T02:00:00Z,26.6493,-81.8810,2.13,5.52,1111122 
SCCF RECON,ioos:station:SCCF:53:1,2010-05-08T03:00:00Z,26.6493,-81.8810,2.17,5.39,1111122 
SCCF RECON,ioos:station:SCCF:53:1,2010-05-08T04:00:00Z,26.6493,-81.8810,2.19,5.37,1111122 
SCCF RECON,ioos:station:SCCF:53:1,2010-05-08T05:00:00Z,26.6493,-81.8810,2.17,5.43,1111122 
SCCF RECON,ioos:station:SCCF:53:1,2010-05-08T06:00:00Z,26.6493,-81.8810,2.13,5.45,1111122 
SCCF RECON,ioos:station:SCCF:53:1,2010-05-08T07:00:00Z,26.6493,-81.8810,2.08,5.34,1111122 
SCCF RECON,ioos:station:SCCF:53:1,2010-05-08T08:00:00Z,26.6493,-81.8810,2.04,5.21,1111122 
SCCF RECON,ioos:station:SCCF:53:1,2010-05-08T09:00:00Z,26.6493,-81.8810,2.01,5.14,1111122 
SCCF RECON,ioos:station:SCCF:53:1,2010-05-08T10:00:00Z,26.6493,-81.8810,1.98,5.19,1111122 
SCCF RECON,ioos:station:SCCF:53:1,2010-05-08T11:00:00Z,26.6493,-81.8810,1.96,5.03,1111122 
SCCF RECON,ioos:station:SCCF:53:1,2010-05-08T12:00:00Z,26.6493,-81.8810,1.98,4.93,1111122 
SCCF RECON,ioos:station:SCCF:53:1,2010-05-08T13:00:00Z,26.6493,-81.8810,2.03,4.91,1111122 
SCCF RECON,ioos:station:SCCF:53:1,2010-05-08T14:00:00Z,26.6493,-81.8810,2.076,4.97,1111122 
SCCF RECON,ioos:station:SCCF:53:1,2010-05-08T15:00:00Z,26.6493,-81.8810,2.123,5.0,1111122 
SCCF RECON,ioos:station:SCCF:53:1,2010-05-08T16:00:00Z,26.6493,-81.8810,2.177,5.05,1111122 
SCCF RECON,ioos:station:SCCF:53:1,2010-05-08T17:00:00Z,26.6493,-81.8810,2.203,5.0,1111122 
SCCF RECON,ioos:station:SCCF:53:1,2010-05-08T18:00:00Z,26.6493,-81.8810,2.194,4.98,1111122 
SCCF RECON,ioos:station:SCCF:53:1,2010-05-08T19:00:00Z,26.6493,-81.8810,2.154,5.01,1111122 
SCCF RECON,ioos:station:SCCF:53:1,2010-05-08T20:00:00Z,26.6493,-81.8810,2.109,5.39,1111122 
SCCF RECON,ioos:station:SCCF:53:1,2010-05-08T21:00:00Z,26.6493,-81.8810,2.068,5.67,1111122 
SCCF RECON,ioos:station:SCCF:53:1,2010-05-08T22:00:00Z,26.6493,-81.8810,2.029,5.71,1111122 
SCCF RECON,ioos:station:SCCF:53:1,2010-05-08T23:00:00Z,26.6493,-81.8810,1.997,5.85,1111122 
SCCF RECON,ioos:station:SCCF:53:1,2010-05-09T00:00:00Z,26.6493,-81.8810,1.97,5.76,1111122 
SCCF RECON,ioos:station:SCCF:53:1,2010-05-09T01:00:00Z,26.6493,-81.8810,1.968,5.8,1111122 
SCCF RECON,ioos:station:SCCF:53:1,2010-05-09T02:00:00Z,26.6493,-81.8810,2.0,5.78,1111122 
SCCF RECON,ioos:station:SCCF:53:1,2010-05-09T03:00:00Z,26.6493,-81.8810,2.05,5.69,1111122 
SCCF RECON,ioos:station:SCCF:53:1,2010-05-09T04:00:00Z,26.6493,-81.8810,2.09,5.73,1111122 
SCCF RECON,ioos:station:SCCF:53:1,2010-05-09T05:00:00Z,26.6493,-81.8810,2.12,5.72,1111122 
SCCF RECON,ioos:station:SCCF:53:1,2010-05-09T06:00:00Z,26.6493,-81.8810,2.13,5.74,1111122 
SCCF RECON,ioos:station:SCCF:53:1,2010-05-09T07:00:00Z,26.6493,-81.8810,2.1,5.68,1111122 
SCCF RECON,ioos:station:SCCF:53:1,2010-05-09T08:00:00Z,26.6493,-81.8810,2.06,5.66,1111122 
SCCF RECON,ioos:station:SCCF:53:1,2010-05-09T09:00:00Z,26.6493,-81.8810,2.03,5.47,1111122 
SCCF RECON,ioos:station:SCCF:53:1,2010-05-09T10:00:00Z,26.6493,-81.8810,2.0,5.36,1111122 
SCCF RECON,ioos:station:SCCF:53:1,2010-05-09T11:00:00Z,26.6493,-81.8810,1.98,5.27,1111122 
SCCF RECON,ioos:station:SCCF:53:1,2010-05-09T12:00:00Z,26.6493,-81.8810,1.98,5.13,1111122 
SCCF RECON,ioos:station:SCCF:53:1,2010-05-09T13:00:00Z,26.6493,-81.8810,2.019,5.12,1111122 
SCCF RECON,ioos:station:SCCF:53:1,2010-05-09T14:00:00Z,26.6493,-81.8810,2.07,5.13,1111122 
SCCF RECON,ioos:station:SCCF:53:1,2010-05-09T15:00:00Z,26.6493,-81.8810,2.13,5.22,1111122 
SCCF RECON,ioos:station:SCCF:53:1,2010-05-09T16:00:00Z,26.6493,-81.8810,2.18,5.2,1111122 
SCCF RECON,ioos:station:SCCF:53:1,2010-05-09T17:00:00Z,26.6493,-81.8810,2.22,5.18,1111122 
SCCF RECON,ioos:station:SCCF:53:1,2010-05-09T18:00:00Z,26.6493,-81.8810,2.241,5.22,1111122 
SCCF RECON,ioos:station:SCCF:53:1,2010-05-09T19:00:00Z,26.6493,-81.8810,2.224,5.37,1111122 
SCCF RECON,ioos:station:SCCF:53:1,2010-05-09T20:00:00Z,26.6493,-81.8810,2.18,5.09,1111122 
SCCF RECON,ioos:station:SCCF:53:1,2010-05-09T21:00:00Z,26.6493,-81.8810,2.13,5.15,1111122 
SCCF RECON,ioos:station:SCCF:53:1,2010-05-09T22:00:00Z,26.6493,-81.8810,2.081,4.98,1111122 
SCCF RECON,ioos:station:SCCF:53:1,2010-05-09T23:00:00Z,26.6493,-81.8810,2.043,5.42,1111122 
SCCF RECON,ioos:station:SCCF:53:1,2010-05-10T00:00:00Z,26.6493,-81.8810,2.01,5.59,1111122 
SCCF RECON,ioos:station:SCCF:53:1,2010-05-10T01:00:00Z,26.6493,-81.8810,2.0,5.47,1111122 
SCCF RECON,ioos:station:SCCF:53:1,2010-05-10T02:00:00Z,26.6493,-81.8810,2.02,5.43,1111122 
SCCF RECON,ioos:station:SCCF:53:1,2010-05-10T03:00:00Z,26.6493,-81.8810,2.06,5.38,1111122 
SCCF RECON,ioos:station:SCCF:53:1,2010-05-10T04:00:00Z,26.6493,-81.8810,2.1,5.46,1111122 
SCCF RECON,ioos:station:SCCF:53:1,2010-05-10T05:00:00Z,26.6493,-81.8810,2.14,5.47,1111122 
SCCF RECON,ioos:station:SCCF:53:1,2010-05-10T06:00:00Z,26.6493,-81.8810,2.169,5.45,1111122 
SCCF RECON,ioos:station:SCCF:53:1,2010-05-10T07:00:00Z,26.6493,-81.8810,2.157,5.45,1111122 
SCCF RECON,ioos:station:SCCF:53:1,2010-05-10T08:00:00Z,26.6493,-81.8810,2.12,5.53,1111122 
SCCF RECON,ioos:station:SCCF:53:1,2010-05-10T09:00:00Z,26.6493,-81.8810,2.08,5.54,1111122 
SCCF RECON,ioos:station:SCCF:53:1,2010-05-10T10:00:00Z,26.6493,-81.8810,2.04,5.42,1111122 
SCCF RECON,ioos:station:SCCF:53:1,2010-05-10T11:00:00Z,26.6493,-81.8810,2.007,5.27,1111122 
SCCF RECON,ioos:station:SCCF:53:1,2010-05-10T12:00:00Z,26.6493,-81.8810,1.98,5.22,1111122 
SCCF RECON,ioos:station:SCCF:53:1,2010-05-10T13:00:00Z,26.6493,-81.8810,1.97,5.23,1111122 
SCCF RECON,ioos:station:SCCF:53:1,2010-05-10T14:00:00Z,26.6493,-81.8810,2.01,5.33,1111122 
SCCF RECON,ioos:station:SCCF:53:1,2010-05-10T15:00:00Z,26.6493,-81.8810,2.067,5.36,1111122 
SCCF RECON,ioos:station:SCCF:53:1,2010-05-10T16:00:00Z,26.6493,-81.8810,2.117,5.48,1111122 
SCCF RECON,ioos:station:SCCF:53:1,2010-05-10T17:00:00Z,26.6493,-81.8810,2.17,5.66,1111122 
SCCF RECON,ioos:station:SCCF:53:1,2010-05-10T18:00:00Z,26.6493,-81.8810,2.2,5.74,1111122 
SCCF RECON,ioos:station:SCCF:53:1,2010-05-10T19:00:00Z,26.6493,-81.8810,2.189,5.82,1111122 
SCCF RECON,ioos:station:SCCF:53:1,2010-05-10T20:00:00Z,26.6493,-81.8810,2.139,5.85,1111122 
SCCF RECON,ioos:station:SCCF:53:1,2010-05-10T21:00:00Z,26.6493,-81.8810,2.09,5.62,1111122 
SCCF RECON,ioos:station:SCCF:53:1,2010-05-10T22:00:00Z,26.6493,-81.8810,2.049,5.57,1111122 
SCCF RECON,ioos:station:SCCF:53:1,2010-05-10T23:00:00Z,26.6493,-81.8810,2.009,5.82,1111122 
SCCF RECON,ioos:station:SCCF:53:1,2010-05-11T00:00:00Z,26.6493,-81.8810,1.97,6.02,1111122 
SCCF RECON,ioos:station:SCCF:53:1,2010-05-11T01:00:00Z,26.6493,-81.8810,1.94,6.1,1111122 
SCCF RECON,ioos:station:SCCF:53:1,2010-05-11T02:00:00Z,26.6493,-81.8810,1.94,6.15,1111122 
SCCF RECON,ioos:station:SCCF:53:1,2010-05-11T03:00:00Z,26.6493,-81.8810,1.977,6.15,1111122 
SCCF RECON,ioos:station:SCCF:53:1,2010-05-11T04:00:00Z,26.6493,-81.8810,2.02,6.09,1111122 
SCCF RECON,ioos:station:SCCF:53:1,2010-05-11T05:00:00Z,26.6493,-81.8810,2.06,5.89,1111122 
SCCF RECON,ioos:station:SCCF:53:1,2010-05-11T06:00:00Z,26.6493,-81.8810,2.11,5.87,1111122 
SCCF RECON,ioos:station:SCCF:53:1,2010-05-11T07:00:00Z,26.6493,-81.8810,2.14,5.95,1111122 
SCCF RECON,ioos:station:SCCF:53:1,2010-05-11T08:00:00Z,26.6493,-81.8810,2.139,5.87,1111122 
SCCF RECON,ioos:station:SCCF:53:1,2010-05-11T09:00:00Z,26.6493,-81.8810,2.11,5.85,1111122 
SCCF RECON,ioos:station:SCCF:53:1,2010-05-11T10:00:00Z,26.6493,-81.8810,2.07,5.87,1111122 
SCCF RECON,ioos:station:SCCF:53:1,2010-05-11T11:00:00Z,26.6493,-81.8810,2.04,5.9,1111122 
SCCF RECON,ioos:station:SCCF:53:1,2010-05-11T12:00:00Z,26.6493,-81.8810,2.02,6.02,1111122 
SCCF RECON,ioos:station:SCCF:53:1,2010-05-11T13:00:00Z,26.6493,-81.8810,2.021,6.02,1111122 
SCCF RECON,ioos:station:SCCF:53:1,2010-05-11T14:00:00Z,26.6493,-81.8810,2.091,5.99,1111122 
SCCF RECON,ioos:station:SCCF:53:1,2010-05-11T15:00:00Z,26.6493,-81.8810,2.157,6.0,1111122 
SCCF RECON,ioos:station:SCCF:53:1,2010-05-11T16:00:00Z,26.6493,-81.8810,2.21,6.07,1111122 
SCCF RECON,ioos:station:SCCF:53:1,2010-05-11T17:00:00Z,26.6493,-81.8810,2.271,6.17,1111122 
SCCF RECON,ioos:station:SCCF:53:1,2010-05-11T18:00:00Z,26.6493,-81.8810,2.31,6.26,1111122 
SCCF RECON,ioos:station:SCCF:53:1,2010-05-11T19:00:00Z,26.6493,-81.8810,2.312,6.37,1111122 
SCCF RECON,ioos:station:SCCF:53:1,2010-05-11T20:00:00Z,26.6493,-81.8810,2.27,6.39,1111122 